Weather History for Santa Ynez, CA

Change the Weather History Date:

Monday, August 26, 2013

  Actual Average (KSBA) Record (KSBA)
Temperature  
Mean Temperature 70 °F 66 °F  
Max Temperature 87 °F 75 °F 86 °F (1977)
Min Temperature 53 °F 57 °F 48 °F (1944)
Degree Days  
Heating Degree Days 0 1  
Month to date heating degree days 26  
Since 1 June heating degree days 143  
Since 1 July heating degree days 53  
Cooling Degree Days 5 2  
Month to date cooling degree days 52  
Year to date cooling degree days 124  
Since 1 June cooling degree days 110  
Growing Degree Days 20 (Base 50)    
Moisture  
Dew Point 53 °F    
Average Humidity 73    
Maximum Humidity 100    
Minimum Humidity 27    
Precipitation  
Precipitation 0.00 in 0.01 in 0.34 in (1984)
Month to date precipitation 0.10  
Year to date precipitation 12.18  
Since 1 July precipitation 0.13  
Sea Level Pressure  
Sea Level Pressure 29.93 in    
Wind  
Wind Speed 3 mph (West)    
Max Wind Speed 17 mph    
Max Gust Speed 21 mph    
Visibility 7 miles    
Events Fog    
T = Trace of Precipitation, MM = Missing Value Source: NWS Daily Summary

Daily Weather History Graph

Daily Weather History Graph

Search for Another Location

Airport:

Trip Planner

Search our weather history database for the weather conditions in past years. The results will help you decide how hot, cold, wet, or windy it might be!

Date:

Astronomy

Aug. 26, 2013 Rise Set
Actual Time 6:29 AM PDT 7:34 PM PDT
Civil Twilight 6:03 AM PDT 8:00 PM PDT
Nautical Twilight 5:32 AM PDT 8:30 PM PDT
Astronomical Twilight 5:00 AM PDT 9:02 PM PDT
Moon 11:05 PM PDT (8/26) 12:18 PM PDT (8/26)
Length of Visible Light 13h 56m
Length of Day
13h 04m
Waning Gibbous, 65% of the Moon is Illuminated
Aug 26
Waning Gibbous
Aug 28
Last Quarter
Sep 5
New
Sep 12
First Quarter
Sep 19
Full

Hourly Weather History & Observations

Time (PDT) Temp. Heat Index Dew Point Humidity Pressure Visibility Wind Dir Wind Speed Gust Speed Precip Events Conditions
12:15 AM 55.4 °F - 53.6 °F 94% 29.97 in 1.2 mi Calm Calm - N/A   Mostly Cloudy
12:35 AM 55.4 °F - 53.6 °F 94% 29.97 in 0.5 mi Calm Calm - N/A Fog Fog
12:55 AM 55.4 °F - 53.6 °F 94% 29.97 in 0.8 mi Calm Calm - N/A   Overcast
1:15 AM 55.4 °F - 53.6 °F 94% 29.97 in 0.5 mi Calm Calm - N/A Fog Fog
1:35 AM 55.4 °F - 53.6 °F 94% 29.96 in 1.0 mi Calm Calm - N/A   Overcast
1:55 AM 55.4 °F - 55.4 °F 100% 29.96 in 0.5 mi Calm Calm - N/A Fog Fog
2:15 AM 55.4 °F - 53.6 °F 94% 29.96 in 1.0 mi Calm Calm - N/A   Overcast
2:35 AM 55.4 °F - 53.6 °F 94% 29.96 in 2.0 mi Calm Calm - N/A   Overcast
2:55 AM 55.4 °F - 53.6 °F 94% 29.96 in 1.5 mi Calm Calm - N/A   Overcast
3:15 AM 55.4 °F - 53.6 °F 94% 29.97 in 0.8 mi Calm Calm - N/A   Overcast
3:35 AM 55.4 °F - 53.6 °F 94% 29.97 in 0.2 mi Calm Calm - N/A Fog Fog
3:55 AM 55.4 °F - 53.6 °F 94% 29.97 in 0.8 mi Calm Calm - N/A   Overcast
4:15 AM 55.4 °F - 53.6 °F 94% 29.97 in 1.2 mi Calm Calm - N/A   Overcast
4:35 AM 55.4 °F - 53.6 °F 94% 29.96 in 1.0 mi Calm Calm - N/A   Overcast
4:55 AM 55.4 °F - 53.6 °F 94% 29.96 in 0.5 mi Calm Calm - N/A Fog Fog
5:15 AM 55.4 °F - 53.6 °F 94% 29.96 in 0.5 mi Calm Calm - N/A Fog Fog
5:35 AM 53.6 °F - 53.6 °F 100% 29.97 in 0.5 mi Calm Calm - N/A Fog Fog
5:55 AM 53.6 °F - 53.6 °F 100% 29.97 in 0.5 mi Calm Calm - N/A Fog Fog
6:15 AM 53.6 °F - 53.6 °F 100% 29.97 in 0.5 mi Calm Calm - N/A Fog Fog
6:35 AM 53.6 °F - 53.6 °F 100% 29.98 in 0.5 mi Calm Calm - N/A Fog Fog
6:55 AM 53.6 °F - 53.6 °F 100% 29.98 in 0.8 mi Calm Calm - N/A   Overcast
7:15 AM 53.6 °F - 51.8 °F 94% 29.98 in 1.0 mi Calm Calm - N/A   Overcast
7:35 AM 53.6 °F - 51.8 °F 94% 29.98 in 7.0 mi Calm Calm - N/A   Overcast
7:55 AM 53.6 °F - 53.6 °F 100% 29.98 in 1.2 mi Calm Calm - N/A   Overcast
8:15 AM 53.6 °F - 53.6 °F 100% 29.98 in 0.5 mi Calm Calm - N/A Fog Fog
8:35 AM 55.4 °F - 53.6 °F 94% 29.98 in 7.0 mi Calm Calm - N/A   Overcast
8:55 AM 55.4 °F - 55.4 °F 100% 29.98 in 10.0 mi Calm Calm - N/A   Overcast
9:15 AM 59.0 °F - 57.2 °F 94% 29.97 in 10.0 mi Calm Calm - N/A   Scattered Clouds
9:35 AM 59.0 °F - 57.2 °F 94% 29.97 in 10.0 mi Calm Calm - N/A   Clear
9:55 AM 64.4 °F - 53.6 °F 68% 29.96 in 10.0 mi West 4.6 mph - N/A   Clear
10:15 AM 68.0 °F - 53.6 °F 60% 29.96 in 10.0 mi West 4.6 mph - N/A   Clear
10:35 AM 69.8 °F - 53.6 °F 56% 29.96 in 10.0 mi West 4.6 mph - N/A   Clear
10:55 AM 71.6 °F - 53.6 °F 53% 29.95 in 10.0 mi West 4.6 mph - N/A   Clear
11:15 AM 75.2 °F - 53.6 °F 47% 29.95 in 10.0 mi West 4.6 mph - N/A   Clear
11:35 AM 78.8 °F - 53.6 °F 42% 29.94 in 10.0 mi West 6.9 mph - N/A   Clear
11:55 AM 80.6 °F 80.3 °F 53.6 °F 39% 29.93 in 10.0 mi West 5.8 mph - N/A   Clear
12:15 PM 82.4 °F 81.4 °F 53.6 °F 37% 29.92 in 10.0 mi West 6.9 mph - N/A   Clear
12:35 PM 84.2 °F - 51.8 °F 33% 29.91 in 10.0 mi West 8.1 mph - N/A   Clear
12:55 PM 86.0 °F - 50.0 °F 29% 29.90 in 10.0 mi WNW 9.2 mph - N/A   Clear
1:15 PM 87.8 °F - 51.8 °F 29% 29.90 in 10.0 mi WNW 9.2 mph - N/A   Clear
1:35 PM 87.8 °F - 50.0 °F 27% 29.90 in 10.0 mi West 12.7 mph - N/A   Clear
1:55 PM 87.8 °F - 50.0 °F 27% 29.89 in 10.0 mi West 12.7 mph - N/A   Clear
2:15 PM 87.8 °F - 50.0 °F 27% 29.88 in 10.0 mi WNW 12.7 mph - N/A   Clear
2:35 PM 87.8 °F - 50.0 °F 27% 29.88 in 10.0 mi WNW 15.0 mph - N/A   Clear
2:55 PM 87.8 °F - 51.8 °F 29% 29.87 in 10.0 mi West 16.1 mph - N/A   Clear
3:15 PM 86.0 °F - 51.8 °F 31% 29.87 in 10.0 mi West 16.1 mph 20.7 mph N/A   Clear
3:35 PM 82.4 °F - 51.8 °F 35% 29.87 in 10.0 mi WNW 15.0 mph - N/A   Clear
3:55 PM 82.4 °F - 51.8 °F 35% 29.87 in 10.0 mi WNW 17.3 mph - N/A   Clear
4:15 PM 80.6 °F 80.3 °F 53.6 °F 39% 29.87 in 10.0 mi WNW 13.8 mph - N/A   Clear
4:35 PM 78.8 °F - 53.6 °F 42% 29.87 in 10.0 mi West 17.3 mph - N/A   Clear
4:55 PM 78.8 °F - 53.6 °F 42% 29.88 in 10.0 mi WNW 11.5 mph - N/A   Clear
5:15 PM 75.2 °F - 55.4 °F 50% 29.88 in 10.0 mi West 13.8 mph - N/A   Clear
5:35 PM 73.4 °F - 55.4 °F 53% 29.88 in 10.0 mi West 10.4 mph - N/A   Clear
5:55 PM 73.4 °F - 55.4 °F 53% 29.88 in 10.0 mi West 9.2 mph - N/A   Clear
6:15 PM 71.6 °F - 55.4 °F 57% 29.88 in 10.0 mi West 10.4 mph - N/A   Clear
6:35 PM 69.8 °F - 55.4 °F 60% 29.89 in 10.0 mi West 11.5 mph - N/A   Clear
6:55 PM 68.0 °F - 55.4 °F 64% 29.89 in 10.0 mi West 10.4 mph - N/A   Clear
7:15 PM 66.2 °F - 55.4 °F 68% 29.89 in 10.0 mi West 10.4 mph - N/A   Clear
7:35 PM 64.4 °F - 53.6 °F 68% 29.90 in 10.0 mi West 8.1 mph - N/A   Clear
7:55 PM 62.6 °F - 53.6 °F 72% 29.90 in 10.0 mi West 8.1 mph - N/A   Clear
8:15 PM 60.8 °F - 53.6 °F 77% 29.91 in 10.0 mi West 4.6 mph - N/A   Clear
8:35 PM 60.8 °F - 53.6 °F 77% 29.91 in 10.0 mi West 5.8 mph - N/A   Clear
8:55 PM 59.0 °F - 53.6 °F 82% 29.92 in 10.0 mi WSW 5.8 mph - N/A   Clear
9:15 PM 59.0 °F - 53.6 °F 82% 29.92 in 10.0 mi WSW 4.6 mph - N/A   Clear
9:35 PM 59.0 °F - 53.6 °F 82% 29.92 in 10.0 mi Calm Calm - N/A   Clear
9:55 PM 57.2 °F - 53.6 °F 88% 29.92 in 10.0 mi West 3.5 mph - N/A   Clear
10:15 PM 57.2 °F - 53.6 °F 88% 29.92 in 10.0 mi WSW 3.5 mph - N/A   Clear
10:35 PM 55.4 °F - 53.6 °F 94% 29.92 in 10.0 mi Calm Calm - N/A   Clear
10:55 PM 55.4 °F - 53.6 °F 94% 29.92 in 10.0 mi Calm Calm - N/A   Clear
11:15 PM 55.4 °F - 53.6 °F 94% 29.92 in 10.0 mi Calm Calm - N/A   Scattered Clouds
11:35 PM 55.4 °F - 53.6 °F 94% 29.92 in 7.0 mi Calm Calm - N/A   Scattered Clouds
11:55 PM 55.4 °F - 53.6 °F 94% 29.91 in 3.0 mi Calm Calm - N/A   Mostly Cloudy